This is the latest recevied weather packets stored in our database for station/object KB4NWJ. If no packets are shown the sender has not sent any weather packets the latest 10 day(s).
| Time | Temp. | Humidity | Pressure | Rain* | Wind** | Luminosity | Snow |
|---|---|---|---|---|---|---|---|
| 1777897422 | 10° C | 99% | 1019.5 hPa | 0 mm | - | 98 W/m² | - |
| 1777897118 | 8.89° C | 99% | 1019.5 hPa | 0 mm | - | 91 W/m² | - |
| 1777896815 | 9.44° C | 99% | 1019.3 hPa | 0 mm | - | 82 W/m² | - |
| 1777896512 | 8.33° C | 99% | 1019.3 hPa | 0 mm | - | 67 W/m² | - |
| 1777896209 | 7.22° C | 99% | 1019.3 hPa | 0 mm | - | 50 W/m² | - |
| 1777895907 | 7.22° C | 99% | 1019.5 hPa | 0 mm | - | 41 W/m² | - |
| 1777895605 | 6.67° C | 99% | 1019.4 hPa | 0 mm | - | 42 W/m² | - |
| 1777895302 | 6.67° C | 99% | 1019.6 hPa | 0 mm | - | 44 W/m² | - |
| 1777895000 | 6.11° C | 99% | 1019.3 hPa | 0 mm | - | 42 W/m² | - |
| 1777894697 | 6.11° C | 99% | 1019.3 hPa | 0 mm | - | 38 W/m² | - |
| 1777894393 | 5.56° C | 99% | 1019.3 hPa | 0 mm | - | 35 W/m² | - |
| 1777894091 | 5.56° C | 99% | 1019.1 hPa | 0 mm | - | 32 W/m² | - |
| 1777893788 | 5.56° C | 99% | 1019.1 hPa | 0 mm | - | 28 W/m² | - |
| 1777893484 | 5.56° C | 99% | 1019.1 hPa | 0 mm | - | 23 W/m² | - |
| 1777893180 | 5.56° C | 99% | 1019 hPa | 0 mm | - | 18 W/m² | - |
| 1777892877 | 5.56° C | 99% | 1019.2 hPa | 0 mm | - | 14 W/m² | - |
| 1777892574 | 5.56° C | 99% | 1019 hPa | 0 mm | - | 10 W/m² | - |
| 1777892274 | 5° C | 99% | 1019 hPa | 0 mm | - | 5 W/m² | - |
| 1777891971 | 5° C | 99% | 1018.9 hPa | 0 mm | - | 3 W/m² | - |
| 1777891669 | 5.56° C | 99% | 1018.7 hPa | 0 mm | - | 1 W/m² | - |
| 1777891364 | 5° C | 99% | 1018.6 hPa | 0 mm | - | 0 W/m² | - |
| 1777891060 | 5.56° C | 99% | 1018.7 hPa | 0 mm | - | 0 W/m² | - |
| 1777890755 | 5° C | 99% | 1018.8 hPa | 0 mm | - | 0 W/m² | - |
| 1777890451 | 5° C | 99% | 1018.7 hPa | 0 mm | - | 0 W/m² | - |
| 1777890147 | 5.56° C | 99% | 1018.9 hPa | 0 mm | - | 0 W/m² | - |
* Rain latest hour (hover to see other rain measurements)
** Current wind speed in m/s (hover to see current wind gust speed)